Cloud_Cover
100 100 100 53 100 99 100 100 100 100 90 93 100 99 100 100 97 95 100 100 100 99 99 91 99 98 54 23 49 31 95 62 90 95 99 100 84 53 33 15 93 80 39
93 100 57 89 66 94 100 100 100 100 100 100 100 100 100 100 29 89 100 84 99 92 98 98 100 100 100 24 98 99 85 81 100 77 11 15 52 100 94 100 100 100 56
51 100 100 100 94 100 100 100 100 100 100 100 100 100 100 100 99 99 87 20 74 92 100 35 100 100 100 99 98 98 71 71 88 95 100 100 94 100 100 100 100 100 67
17 100 88 100 100 100 100 100 100 100 100 100 100 100 100 100 100 58 96 99 37 29 100 98 94 100 98 100 100 100 100 80 100 100 100 100 100 100 100 100 77 5 5
25 62 93 100 100 100 100 100 100 100 100 100 100 100 100 100 94 100 73 100 100 100 98 89 100 99 14 49 100 100 100 100 100 100 100 100 100 100 99 20 7 8 10
80 78 100 100 100 99 100 100 96 100 100 100 100 100 100 100 100 100 100 100 100 100 100 100 97 95 69 63 100 100 100 100 92 100 100 100 100 89 6 5 5 0 0
27 95 100 95 94 100 99 100 85 100 99 87 80 95 73 77 92 100 100 100 100 100 100 100 100 100 99 100 100 100 100 100 100 100 100 100 100 98 4 0 0 0 0
4 100 100 100 97 100 100 100 97 100 100 100 100 100 100 98 100 100 100 100 100 100 98 100 100 100 100 100 100 100 100 100 94 100 100 100 100 1 0 0 0 0 0
99 100 100 85 100 10 80 100 100 100 100 100 62 94 100 100 100 100 100 100 100 100 100 100 89 100 100 100 100 100 94 100 100 100 100 19 0 0 0 0 5 5 7
75 100 100 90 100 89 100 96 100 90 96 5 90 48 98 74 10 99 88 75 100 100 100 100 100 100 100 100 50 100 100 93 98 5 0 0 0 0 0 5 6 5 6
77 100 91 97 100 100 100 99 100 7 5 5 5 6 48 86 92 100 88 98 100 62 5 10 100 67 32 90 84 56 59 0 0 0 0 0 2 4 5 5 66 100 51
91 90 59 73 100 100 100 100 61 75 49 64 6 96 100 100 98 25 47 51 34 5 5 45 98 98 74 16 5 3 0 0 0 0 0 4 2 4 5 3 6 9 1
100 99 100 91 100 100 100 97 9 31 25 5 25 100 100 95 33 0 0 6 5 2 5 5 65 5 4 1 0 0 0 0 0 0 0 4 0 0 0 0 1 4 0
100 100 100 51 100 43 83 92 100 63 8 89 100 99 95 3 0 0 1 5 9 7 43 12 5 0 0 2 5 0 0 0 0 0 3 5 9 5 5 5 5 5 0
100 100 100 88 100 99 100 36 70 77 93 99 33 3 2 13 0 0 5 23 99 100 100 4 2 5 0 0 0 0 0 1 5 14 99 100 100 100 100 100 98 54 21
100 100 100 100 100 100 77 99 35 3 4 51 22 82 7 5 2 69 31 57 100 7 0 0 0 2 0 4 0 0 3 5 40 100 100 100 100 100 100 100 100 100 100
77 100 100 100 100 100 39 65 28 98 84 100 94 77 20 5 6 5 5 26 8 0 0 4 4 0 0 0 42 90 100 100 100 100 100 100 100 100 100 100 100 86 40
10 0 0 3 0 2 92 90 90 100 100 100 100 68 9 2 4 3 5 5 10 96 51 4 2 4 11 16 5 94 100 100 100 100 100 100 100 100 100 100 100 100 60
0 0 0 1 0 0 5 64 100 100 100 100 100 100 88 100 28 1 40 100 34 57 50 94 55 90 14 53 100 100 100 100 100 100 100 100 100 100 100 100 100 100 91
2 0 1 0 0 0 5 62 100 100 100 54 65 100 100 100 100 100 100 95 94 6 62 100 100 100 98 100 100 100 100 90 100 100 100 100 100 100 100 100 100 100 2
5 7 0 0 0 4 1 8 100 52 13 5 100 97 100 100 86 100 100 100 100 100 5 21 96 82 100 100 100 100 100 100 100 100 100 100 100 100 100 100 100 77 13
78 3 29 12 7 0 17 5 8 5 92 74 28 100 100 64 100 100 100 100 100 85 77 88 100 99 100 100 100 100 100 100 100 100 100 93 52 38 87 71 97 5 33
0 0 3 4 16 8 6 7 81 99 99 99 70 60 100 75 100 100 100 100 100 100 100 99 100 81 96 76 100 98 100 90 92 100 89 96 12 100 20 5 8 1 14
0 0 4 2 99 53 95 54 85 100 83 100 99 100 84 84 86 100 100 100 100 100 100 100 97 64 20 10 80 95 97 51 86 100 99 100 99 23 41 45 4 3 2
0 0 9 61 83 98 100 100 70 89 100 100 100 100 61 100 82 87 100 96 100 100 100 97 5 86 5 21 98 94 76 58 14 30 5 64 15 75 100 100 7 5 11
42 1 33 5 48 78 100 22 62 5 100 98 99 100 100 100 80 79 100 100 100 100 32 63 21 15 21 88 23 33 16 8 4 27 95 11 64 84 87 100 89 22 73